Lid_Strength_Index
9 9 11 11 8 9 8 8 8 6 4 5 6 4 3 1 0 -0 -0 -1 -1 -1 -1 -1 -1 -1 -1 -1 -1 -1 -1 -1
10 11 10 8 8 9 8 8 7 5 7 4 2 3 2 0 0 0 -0 -1 -1 -1 -1 -1 -1 -1 -1 -1 -1 -1 -1 -1
11 11 10 9 9 8 9 9 8 5 7 6 3 1 1 1 0 0 0 -1 -1 -1 -1 -1 -1 -1 -1 -1 -1 -1 -1 -1
13 12 10 9 9 9 9 9 9 5 6 5 2 2 1 0 0 -0 0 -1 -1 -1 -1 -1 -1 -1 -1 -1 -1 -1 -1 -1
12 12 11 10 9 10 10 10 9 4 7 5 4 2 1 0 0 -0 -0 -0 -1 -1 -1 -1 -1 -1 -1 -1 -1 -1 -1 -1
12 12 11 10 10 9 10 9 7 3 7 6 3 1 1 1 1 0 0 -0 -0 -1 -1 -1 -1 -1 -1 -1 -1 -1 -1 -1
12 12 11 10 11 9 9 9 8 7 6 3 2 1 2 2 2 1 1 0 -0 -0 -1 -1 -1 -1 -1 -1 -1 -1 -1 -1
10 10 10 10 11 10 10 9 7 7 3 3 2 2 3 3 3 2 2 1 -0 -0 -0 -1 -1 -1 -1 -1 -1 -1 -1 -2
11 9 10 10 11 10 10 10 9 8 5 4 3 3 3 3 2 2 1 1 0 -0 -1 -1 -0 -1 -1 -1 -1 -1 -1 -2
11 10 10 10 10 11 10 9 8 8 8 3 4 3 3 3 2 2 1 1 0 -0 -0 -0 -1 -0 -1 -0 -1 -1 -1 -1
11 11 10 10 11 11 10 9 8 8 8 7 3 3 3 2 2 1 2 1 0 -0 -0 -0 -0 -0 -0 -0 -1 -1 -1 -1
12 11 11 12 11 11 10 9 8 8 8 8 7 3 2 2 2 2 1 1 0 0 -0 -0 -0 -0 -0 -1 -1 -1 -1 -1
12 11 12 11 13 12 10 9 9 8 8 8 7 7 6 2 2 2 1 1 1 0 -0 -0 -0 -0 -0 -0 -1 -0 -1 -1
11 12 10 11 14 11 10 10 9 9 8 8 7 7 6 5 3 1 1 1 1 0 0 0 0 -0 -0 -0 -0 -0 -1 -1
11 10 10 10 12 9 9 9 8 7 7 7 7 6 5 4 3 1 0 0 1 0 0 0 -0 -0 -0 -0 -0 -0 -1 -1
10 9 8 10 9 8 7 8 7 6 6 6 6 5 2 2 2 1 0 -0 0 0 0 0 0 -0 -0 -0 -0 -1 -0 -1
10 8 9 9 9 7 7 7 6 6 6 5 5 4 3 3 2 1 1 0 1 1 1 1 1 1 1 2 1 0 -0 -1
9 9 9 9 9 7 7 7 6 6 5 5 4 3 3 2 2 2 1 0 0 1 1 1 1 1 1 1 0 0 -0 -1
10 9 9 10 10 9 7 7 6 6 4 4 4 4 3 2 2 1 1 1 1 1 1 0 0 0 0 0 0 1 1 0
9 10 12 10 13 10 8 7 7 5 5 5 4 3 3 3 2 2 1 1 0 1 1 0 -0 1 1 2 2 1 1 -0